Weather History for KOWA - January, 2013

Change the Weather History Date:

Thursday, January 31, 2013

  Actual Average Record
Temperature  
Mean Temperature 2 °F -  
Max Temperature 10 °F 25 °F 75 °F (1999)
Min Temperature -5 °F 5 °F -20 °F (1985)
Degree Days  
Heating Degree Days 62    
Moisture  
Dew Point -10 °F    
Average Humidity 61    
Maximum Humidity 67    
Minimum Humidity 55    
Precipitation  
Precipitation 0.00 in - - ()
Sea Level Pressure  
Sea Level Pressure 29.99 in    
Wind  
Wind Speed 20 mph (WNW)    
Max Wind Speed 25 mph    
Max Gust Speed 32 mph    
Visibility 7 miles    
Events      
Averages and records for this station are not official NWS values.
T = Trace of Precipitation, MM = Missing Value Source: NWS Daily Summary

Daily Weather History Graph

Daily Weather History Graph

Search for Another Location

Airport or City:

Trip Planner

Search our weather history database for the weather conditions in past years. The results will help you decide how hot, cold, wet, or windy it might be!

Date:

Astronomy

Jan. 31, 2013 Rise Set
Actual Time 7:31 AM CST 5:22 PM CST
Civil Twilight 7:00 AM CST 5:52 PM CST
Nautical Twilight 6:26 AM CST 6:27 PM CST
Astronomical Twilight 5:52 AM CST 7:01 PM CST
Moon 10:38 PM CST (1/31) 9:19 AM CST (1/31)
Length of Visible Light 10h 52m
Length of Day
9h 50m
Waning Gibbous, 79% of the Moon is Illuminated
Jan 31
Waning Gibbous
Feb 3
Last Quarter
Feb 10
New
Feb 17
First Quarter
Feb 25
Full

Hourly Weather History & Observations

Time (CST) Temp. Windchill Dew Point Humidity Pressure Visibility Wind Dir Wind Speed Gust Speed Precip Events Conditions
12:14 AM 10.4 °F -7.7 °F 1.4 °F 67% 29.74 in 10.0 mi WNW 18.4 mph 23.0 mph N/A   Overcast
12:34 AM 8.6 °F -10.5 °F -0.4 °F 67% 29.75 in 7.0 mi West 19.6 mph 25.3 mph N/A   Overcast
12:54 AM 8.6 °F -10.5 °F -0.4 °F 67% 29.75 in 7.0 mi WNW 19.6 mph 26.5 mph N/A   Overcast
1:14 AM 8.6 °F -10.0 °F -2.2 °F 62% 29.76 in 7.0 mi West 18.4 mph 27.6 mph N/A   Overcast
1:34 AM 8.6 °F -10.5 °F -2.2 °F 62% 29.76 in 10.0 mi West 19.6 mph - N/A   Overcast
1:54 AM 6.8 °F -13.4 °F -2.2 °F 67% 29.77 in 7.0 mi West 20.7 mph 27.6 mph N/A   Overcast
2:14 AM 6.8 °F -12.4 °F -2.2 °F 67% 29.77 in 7.0 mi West 18.4 mph 26.5 mph N/A   Overcast
2:34 AM 6.8 °F -11.8 °F -2.2 °F 67% 29.78 in 10.0 mi West 17.3 mph 23.0 mph N/A   Overcast
2:54 AM 6.8 °F -11.8 °F -2.2 °F 67% 29.78 in 7.0 mi West 17.3 mph - N/A   Overcast
3:14 AM 5.0 °F -15.7 °F -4.0 °F 66% 29.78 in 7.0 mi West 20.7 mph 25.3 mph N/A   Overcast
3:34 AM 5.0 °F -15.2 °F -5.8 °F 61% 29.78 in 7.0 mi WNW 19.6 mph - N/A   Overcast
3:54 AM 3.2 °F -17.1 °F -5.8 °F 66% 29.79 in 7.0 mi WNW 18.4 mph 24.2 mph N/A   Overcast
4:14 AM 3.2 °F -17.6 °F -5.8 °F 66% 29.79 in 5.0 mi West 19.6 mph 24.2 mph N/A   Haze
4:34 AM 3.2 °F -17.6 °F -5.8 °F 66% 29.80 in 7.0 mi West 19.6 mph 26.5 mph N/A   Overcast
4:54 AM 3.2 °F -18.1 °F -5.8 °F 66% 29.81 in 7.0 mi WNW 20.7 mph - N/A   Overcast
5:14 AM 3.2 °F -15.3 °F -5.8 °F 66% 29.82 in 10.0 mi WNW 15.0 mph 24.2 mph N/A   Overcast
5:34 AM 3.2 °F -15.3 °F -7.6 °F 61% 29.83 in 7.0 mi WNW 15.0 mph 24.2 mph N/A   Overcast
5:54 AM 3.2 °F -18.1 °F -7.6 °F 61% 29.84 in 7.0 mi WNW 20.7 mph 26.5 mph N/A   Overcast
6:14 AM 3.2 °F -17.1 °F -7.6 °F 61% 29.85 in 5.0 mi West 18.4 mph 24.2 mph N/A   Haze
6:34 AM 3.2 °F -16.5 °F -7.6 °F 61% 29.85 in 5.0 mi West 17.3 mph 27.6 mph N/A   Haze
6:54 AM 1.4 °F -19.4 °F -9.4 °F 61% 29.86 in 4.0 mi WNW 18.4 mph 25.3 mph N/A   Haze
7:14 AM 1.4 °F -18.8 °F -9.4 °F 61% 29.87 in 7.0 mi WNW 17.3 mph - N/A   Overcast
7:33 AM 1.4 °F -16.9 °F -9.4 °F 61% 29.88 in 7.0 mi WNW 13.8 mph 25.3 mph N/A   Mostly Cloudy
7:54 AM 1.4 °F -18.8 °F -9.4 °F 61% 29.89 in 7.0 mi West 17.3 mph 23.0 mph N/A   Clear
8:14 AM 1.4 °F -19.4 °F -9.4 °F 61% 29.90 in 7.0 mi WNW 18.4 mph 24.2 mph N/A   Clear
8:34 AM -0.4 °F -23.3 °F -9.4 °F 66% 29.91 in 7.0 mi West 21.9 mph 29.9 mph N/A   Clear
8:54 AM -0.4 °F -23.3 °F -11.2 °F 60% 29.92 in 7.0 mi WNW 21.9 mph 28.8 mph N/A   Clear
9:19 AM -0.4 °F -21.7 °F -11.2 °F 60% 29.93 in 7.0 mi West 18.4 mph 25.3 mph N/A   Mostly Cloudy
9:34 AM 1.4 °F -21.0 °F -9.4 °F 61% 29.94 in 7.0 mi WNW 21.9 mph 27.6 mph N/A   Mostly Cloudy
9:54 AM -0.4 °F -22.8 °F -11.2 °F 60% 29.95 in 5.0 mi WNW 20.7 mph 24.2 mph N/A   Haze
10:14 AM 1.4 °F -21.4 °F -11.2 °F 56% 29.96 in 5.0 mi West 23.0 mph 29.9 mph N/A   Haze
10:34 AM -0.4 °F -24.3 °F -11.2 °F 60% 29.98 in 4.0 mi West 24.2 mph 31.1 mph N/A   Haze
10:54 AM -0.4 °F -24.3 °F -11.2 °F 60% 29.98 in 4.0 mi West 24.2 mph 29.9 mph N/A   Haze
11:14 AM 1.4 °F -21.4 °F -11.2 °F 56% 29.99 in 5.0 mi WNW 23.0 mph 27.6 mph N/A   Haze
11:34 AM 1.4 °F -21.0 °F -9.4 °F 61% 29.99 in 5.0 mi WNW 21.9 mph 29.9 mph N/A   Haze
11:54 AM 1.4 °F -19.4 °F -11.2 °F 56% 30.00 in 4.0 mi WNW 18.4 mph 28.8 mph N/A   Haze
12:14 PM 1.4 °F -21.4 °F -11.2 °F 56% 30.01 in 5.0 mi WNW 23.0 mph 29.9 mph N/A   Haze
12:34 PM 1.4 °F -21.0 °F -9.4 °F 61% 30.01 in 5.0 mi West 21.9 mph 28.8 mph N/A   Haze
12:54 PM 1.4 °F -21.4 °F -9.4 °F 61% 30.02 in 5.0 mi WNW 23.0 mph 31.1 mph N/A   Haze
1:14 PM 3.2 °F -19.0 °F -9.4 °F 56% 30.02 in 4.0 mi WNW 23.0 mph 29.9 mph N/A   Haze
1:34 PM 3.2 °F -19.0 °F -9.4 °F 56% 30.02 in 4.0 mi West 23.0 mph 27.6 mph N/A   Haze
1:54 PM 3.2 °F -19.9 °F -9.4 °F 56% 30.03 in 4.0 mi WNW 25.3 mph 31.1 mph N/A   Haze
2:14 PM 3.2 °F -19.9 °F -9.4 °F 56% 30.04 in 3.0 mi WNW 25.3 mph 32.2 mph N/A   Haze
2:34 PM 3.2 °F -18.6 °F -7.6 °F 61% 30.04 in 3.0 mi WNW 21.9 mph 29.9 mph N/A   Haze
2:54 PM 3.2 °F -19.5 °F -9.4 °F 56% 30.06 in 3.0 mi WNW 24.2 mph 28.8 mph N/A   Haze
3:14 PM 1.4 °F -21.4 °F -9.4 °F 61% 30.07 in 4.0 mi WNW 23.0 mph 27.6 mph N/A   Haze
3:34 PM 1.4 °F -21.0 °F -9.4 °F 61% 30.08 in 3.0 mi WNW 21.9 mph 28.8 mph N/A   Haze
3:54 PM 1.4 °F -19.9 °F -9.4 °F 61% 30.08 in 4.0 mi WNW 19.6 mph 27.6 mph N/A   Haze
4:14 PM 1.4 °F -21.0 °F -9.4 °F 61% 30.10 in 4.0 mi WNW 21.9 mph 32.2 mph N/A   Haze
4:34 PM 1.4 °F -22.3 °F -11.2 °F 56% 30.11 in 7.0 mi West 25.3 mph 31.1 mph N/A   Scattered Clouds
4:54 PM 1.4 °F -21.0 °F -11.2 °F 56% 30.11 in 5.0 mi WNW 21.9 mph 28.8 mph N/A   Haze
5:14 PM -0.4 °F -21.2 °F -11.2 °F 60% 30.12 in 7.0 mi WNW 17.3 mph 27.6 mph N/A   Clear
5:34 PM -0.4 °F -24.3 °F -11.2 °F 60% 30.13 in 7.0 mi WNW 24.2 mph 31.1 mph N/A   Clear
5:54 PM -0.4 °F -22.3 °F -11.2 °F 60% 30.14 in 7.0 mi WNW 19.6 mph 24.2 mph N/A   Clear
6:14 PM -0.4 °F -21.7 °F -11.2 °F 60% 30.15 in 7.0 mi WNW 18.4 mph - N/A   Clear
6:34 PM -2.2 °F -24.1 °F -13.0 °F 60% 30.16 in 10.0 mi WNW 18.4 mph - N/A   Clear
6:54 PM -2.2 °F -25.2 °F -13.0 °F 60% 30.17 in 10.0 mi WNW 20.7 mph 26.5 mph N/A   Clear
7:14 PM -2.2 °F -23.5 °F -14.8 °F 55% 30.17 in 10.0 mi WNW 17.3 mph 24.2 mph N/A   Clear
7:34 PM -2.2 °F -24.1 °F -14.8 °F 55% 30.18 in 10.0 mi WNW 18.4 mph 23.0 mph N/A   Clear
8:13 PM -2.2 °F -20.7 °F -14.8 °F 55% 30.20 in 10.0 mi WNW 12.7 mph 20.7 mph N/A   Clear
8:33 PM -2.2 °F -22.9 °F -14.8 °F 55% 30.20 in 10.0 mi WNW 16.1 mph 23.0 mph N/A   Clear
8:54 PM -4.0 °F -27.0 °F -14.8 °F 60% 30.20 in 10.0 mi West 19.6 mph 26.5 mph N/A   Clear
9:14 PM -4.0 °F -27.0 °F -14.8 °F 60% 30.20 in 10.0 mi WNW 19.6 mph - N/A   Clear
9:34 PM -4.0 °F -27.6 °F -14.8 °F 60% 30.21 in 10.0 mi WNW 20.7 mph 25.3 mph N/A   Clear
9:54 PM -4.0 °F -27.6 °F -16.6 °F 55% 30.22 in 10.0 mi WNW 20.7 mph - N/A   Clear
10:14 PM -4.0 °F -27.6 °F -16.6 °F 55% 30.23 in 10.0 mi WNW 20.7 mph 25.3 mph N/A   Clear
10:33 PM -5.8 °F -28.2 °F -16.6 °F 60% 30.23 in 10.0 mi WNW 17.3 mph 28.8 mph N/A   Clear
10:54 PM -5.8 °F -28.8 °F -16.6 °F 60% 30.23 in 10.0 mi West 18.4 mph 24.2 mph N/A   Clear
11:14 PM -5.8 °F -28.2 °F -16.6 °F 60% 30.23 in 10.0 mi WNW 17.3 mph 24.2 mph N/A   Clear
11:34 PM -5.8 °F -29.4 °F -16.6 °F 60% 30.24 in 10.0 mi West 19.6 mph - N/A   Clear
11:54 PM -5.8 °F -28.2 °F -16.6 °F 60% 30.24 in 10.0 mi WNW 17.3 mph 23.0 mph N/A   Clear